ARIANE 5 R/B, 32254

Orbit data source: Space-Track

ARIANE 5 R/B, 32254 is space debris in HEO originally from a launch on Fri, 05 Oct 2007 UTC launched from the French Guiana (FRGUI). Debris objects in space refer to the collection of defunct objects orbiting the Earth. Examples of debris include non-operational satellites, rocket bodies, and fragments generated from explosions, collisions, or faulty payload assembly.

Loading next visibility...
Identifier
32254, 2007-044C
Orbit
HEO
Last TLE update
7 hours ago
Origin
Manufacturer
EADS/Bremen
Mission
Spacecraft
Bus & Motor
EPS+, AESTUS
Mass
3,057 kg wet, 3,057 kg dry
Launch date (UTC)
2007-10-05 (18 years ago)
Launch vehicle
Unknown
Launch site
French Guiana (FRGUI)
Object type
Payload
Rocket body
Debris
Shape & HBR
Cone + Cyl, 5.46 m
Radar Cross Section
28.860 m², Large (>1 m²)

Expand to show TLE details & history

TLE from 7 hours ago
0 ARIANE 5 R/B
1 32254U 07044C   25182.10328107  .00000746  00000-0  75842-3 0  9997
2 32254   4.1636 144.8690 7083284 146.9217 289.8346  2.48972292159552
Epoch: 2025-07-01T02:28Z
TLE epoch observation values (Epoch: 2025-07-01T02:28:43.484Z)
Latitude
0.00001°
Longitude
-171.80237°
Altitude
21,815.429 km
Speed
3.308 km/s
True Right ascension
09h 39m 07s
True Declination
0° 00' 00"
Sunlit
Object was in daylight at epoch
Visualization orbit readout
Latitude
-1.85325°
Longitude
161.67902°
Altitude
32,346.612 km
Speed
1.803 km/s
Apparent Right ascension
08h 03m 46s
Apparent Declination
-7° 01' 14"
Sunlit
Object is in daylight
Visualization observer readout
Local Sidereal Time
21:30:27
Azimuth
36.346° NE
Elevation
-51.8°
Doppler factor
1
Orbital elements
Apogee altitude
32,914.227 km
Perigee altitude
330.448 km
Semi-major axis
23,000.475 km
Eccentricity
0.70833
Inclination
4.1636°
RAAN
144.869°
Arg. of periapsis
146.9217°
True anomaly
Unknown
Mean anomaly
289.8346°
Eccentric anomaly
Unknown
Mean motion
0.62221 °/min
Orbital period
578.58 mins
BSTAR
0.00075842
Loading maneuver chart data...
Loading SW <> Apogee altitude chart data...
Loading historical data...
Loading historical data...
Loading historical data...
Loading historical data...
Loading historical data...
Loading historical data...
Loading historical data...
Other satellites on launch #44 in the year 2007 (2007-10-05 UTC)

ARIANE 5 R/B Visibility forecast

Observer location: undefined°, undefined°

Span
Click to sort rows by Start time (UTC) header in descending order
Start Az.
Max El. time (UTC)
Max El. Az.
Max El.
End time (UTC)
End Az.
525 mins2025-07-01 14:24:05.926Z197.066° SSW2025-07-01 20:47:05.926Z172.884° S33.228°2025-07-01 23:09:05.926Z130.281° SE
|